Location: Unspecified
(47.9110°N, 14.3980°E)
Time: 21:24:52
(UTC+00:00)

Cosmos 1023 Rocket - Pass Details

Date: 06 August 2020
Orbit: 737 x 772 km, 74.1° (Epoch: 22 September)

Event Time Altitude Azimuth Distance (km) Brightness Sun altitude
Exits shadow 20:30:19 - 199° (SSW) 2,580 6.9 -16.7°
Reaches altitude 10° 20:31:02 10° 198° (SSW) 2,309 6.7 -16.8°
Maximum altitude 20:36:17 85° 112° (ESE) 782 4.4 -17.3°
Drops below altitude 10° 20:41:35 10° 24° (NNE) 2,325 7.4 -17.8°
Sets 20:43:58 0° 24° (NNE) 3,254 8.2 -18.1°
